Lid_Strength_Index
18 19 22 21 21 21 21 22 23 21 19 19 21 20 16 16 17 17 16 16 16 16 15 14 13 13 13 12 12 12 12 11 11 11 11 11 10 9 8 7 7 6 6 5
19 21 20 18 19 20 21 22 22 20 19 20 20 19 17 17 17 18 17 17 17 17 15 14 14 14 13 13 13 12 12 11 11 10 10 10 10 9 8 7 6 6 6 6
21 20 18 19 20 20 22 22 23 22 20 21 22 21 19 18 18 17 17 17 16 16 15 15 14 14 14 13 13 12 12 11 11 10 9 9 9 9 9 8 8 7 7 6
21 20 19 20 20 20 21 20 21 21 22 23 22 22 19 20 18 17 17 17 16 16 15 15 14 14 14 13 13 12 11 11 10 10 10 11 11 11 9 8 8 7 7 7
21 21 21 20 20 20 21 20 21 21 23 24 23 24 20 20 18 17 17 17 16 16 15 15 14 14 13 13 13 13 12 11 11 10 10 10 10 10 9 8 8 8 8 7
21 20 20 20 20 20 19 21 21 22 23 25 23 23 20 19 18 18 17 16 16 16 15 15 14 14 14 13 13 13 12 12 11 11 10 11 11 10 9 9 9 9 9 8
21 21 21 20 21 20 20 21 24 25 26 23 23 24 19 18 17 17 17 16 16 16 16 15 15 14 14 13 13 13 12 12 11 11 11 10 10 10 10 10 10 11 10 9
24 23 21 20 21 22 22 22 23 27 25 24 21 23 18 17 17 17 16 16 16 16 15 15 14 14 14 14 14 13 13 13 11 11 10 10 10 10 10 10 10 10 10 9
24 22 21 20 21 21 21 23 21 24 27 26 23 21 17 16 17 17 16 17 16 16 15 15 14 14 14 14 14 14 13 12 11 11 11 10 10 10 10 9 9 8 8 8
20 23 20 20 20 20 20 19 23 24 27 28 23 22 19 17 18 18 17 17 16 16 15 15 14 14 14 14 14 14 13 12 12 11 11 11 11 10 10 10 9 8 8 8
24 21 22 20 22 21 21 22 23 23 22 25 26 22 18 17 17 16 16 16 16 16 15 15 15 15 15 15 15 14 13 13 12 12 11 12 11 11 11 10 9 9 9 9
20 23 24 23 21 20 20 21 20 24 25 25 23 23 17 17 17 17 16 16 16 16 15 16 15 15 15 15 15 14 13 13 13 12 12 12 11 11 11 10 10 10 11 11
20 24 27 23 22 21 25 20 20 21 22 26 26 21 18 18 18 17 17 16 16 16 16 16 16 16 16 15 15 14 14 14 13 13 13 12 12 12 12 12 12 11 12 12
16 23 23 22 22 24 26 26 21 23 27 24 23 18 16 14 15 16 17 16 16 16 16 16 16 16 16 15 15 14 14 14 14 13 13 13 12 13 12 12 12 12 12 13
19 24 25 24 21 24 24 26 23 22 20 22 18 20 17 15 16 17 17 17 17 17 17 16 16 16 16 16 14 15 15 15 14 14 13 13 13 13 12 12 13 13 13 13
20 25 26 26 22 21 23 22 23 20 19 19 19 19 15 14 14 14 15 17 17 16 16 16 15 16 16 15 14 15 16 15 14 14 14 13 13 13 12 13 13 13 13 13
21 24 27 27 22 23 24 22 21 19 20 19 21 17 14 15 15 16 16 17 16 16 16 15 15 16 15 15 14 16 16 16 15 14 13 13 13 13 13 13 13 14 14 14
20 22 22 28 27 26 17 20 20 18 17 17 17 16 15 14 16 16 16 16 15 15 15 15 16 16 15 15 15 16 16 15 15 13 13 13 13 13 13 13 14 14 14 15
18 19 23 23 32 22 17 18 21 22 18 17 17 16 15 15 16 15 14 14 14 15 15 15 15 15 15 15 16 15 16 16 14 14 14 14 14 13 13 14 14 14 15 15
18 17 18 26 25 25 17 19 18 18 19 15 15 15 15 16 18 16 14 15 15 15 15 16 15 15 15 15 15 15 16 15 15 14 15 15 14 13 13 14 14 14 14 15
21 21 22 23 24 23 18 18 17 20 16 15 16 15 16 17 14 14 15 15 15 15 15 15 16 15 15 15 15 15 15 15 14 15 16 16 13 13 13 14 15 14 14 14
21 22 22 21 23 24 18 18 18 14 14 14 16 16 16 15 15 15 14 15 15 15 16 15 15 15 15 15 16 16 16 16 14 18 17 15 13 12 12 13 14 15 14 15
19 18 21 19 20 17 17 16 14 15 14 15 15 15 15 15 15 15 15 15 15 15 16 16 15 16 19 18 17 16 17 14 15 20 20 18 13 12 12 12 13 14 14 14
19 16 18 18 16 16 16 15 15 15 15 15 15 15 15 15 15 15 15 15 15 16 16 17 17 17 17 18 17 16 15 14 15 22 21 19 14 13 12 12 12 13 13 14
15 15 16 18 15 15 13 15 14 13 14 15 14 14 14 15 14 15 15 15 15 15 16 17 16 16 16 17 17 18 17 15 15 16 22 21 14 13 13 13 12 12 12 12
16 16 15 14 12 10 9 10 13 14 14 13 13 14 14 14 14 14 15 14 15 15 16 17 17 17 16 16 16 17 17 15 14 14 18 20 16 13 13 13 13 11 11 11